This demonstration page uses our WeatherBlox Daily Observations layout. Learn more.

38.89511, -77.03637

Hourly Observations for September 13, 2017

Temp ( °F °C ) Dew Point ( °F °C ) Humidity (%) Winds ( mph kmh ) Pressure ( in mb ) Visibility ( mi km ) Precip ( " mm )
12:52 am 00:52 Mostly Cloudy 69 20.6 61 16.1 76 76 Calm 29.91 1013 10 16.09344 0 0
1:52 am 01:52 Cloudy 69 20.6 63 17.2 81 81 ENE 5 7 29.91 1013 10 16.09344 0 0
2:52 am 02:52 Cloudy 69 20.6 64 17.8 84 84 NE 5 7 29.91 1013 10 16.09344 0 0
3:52 am 03:52 Cloudy with Light Rain 69 20.6 64 17.8 84 84 NE 7 11 29.88 1012 10 16.09344 0.001 0.001
4:52 am 04:52 Cloudy with Light Rain 68 20 65 18.3 90 90 E 5 7 29.88 1012 9 14.484096 0.001 0.001
5:26 am 05:26 Cloudy with Light Drizzle 68 20 66 18.9 93 93 NNE 3 6 29.91 1013 5 8.04672 0.01 0.254
5:29 am 05:29 Cloudy with Light Drizzle 68 20 66 18.9 93 93 NNE 5 7 29.91 1013 8 12.874752 0.01 0.254
5:52 am 05:52 Cloudy with Light Drizzle 68 20 66 18.9 93 93 NE 7 11 29.88 1012 8 12.874752 0.01 0.254
6:06 am 06:06 Cloudy with Light Drizzle 68 20 66 18.9 93 93 NE 5 7 29.91 1013 3 4.828032 0.001 0.001
6:52 am 06:52 Cloudy with Light Rain 67 19.4 67 19.4 100 100 N 5 7 29.91 1013 3 4.828032 0.02 0.508
6:58 am 06:58 Cloudy with Light Rain 67 19.4 67 19.4 100 100 N 3 6 29.91 1013 3 4.828032 0.001 0.001
7:52 am 07:52 Cloudy with Mist and Fog 68 20 67 19.4 96 96 N 5 7 29.91 1013 3 4.828032 0.01 0.254
8:52 am 08:52 Cloudy with Mist and Fog 68 20 68 20 100 100 NNE 3 6 29.91 1013 3 4.828032 0.001 0.001
9:14 am 09:14 Cloudy with Light Drizzle 69 20.6 68 20 96 96 NNE 5 7 29.94 1014 2.5 4.02336 0.001 0.001
9:52 am 09:52 Cloudy with Mist and Fog 69 20.6 68 20 96 96 NNE 5 7 29.91 1013 2.5 4.02336 0.001 0.001
10:28 am 10:28 Cloudy with Mist and Fog 69 20.6 68 20 96 96 ENE 3 6 29.94 1014 4 6.437376 0 0
10:52 am 10:52 Cloudy with Mist and Fog 70 21.1 69 20.6 97 97 NE 5 7 29.91 1013 4 6.437376 0 0
11:39 am 11:39 Cloudy with Mist and Fog 72 22.2 69 20.6 91 91 Calm 29.91 1013 6 9.656064 0 0
11:52 am 11:52 Cloudy with Mist and Fog 72 22.2 70 21.1 94 94 Calm 29.91 1013 6 9.656064 0 0
12:26 pm 12:26 Cloudy 73 22.8 70 21.1 90 90 SSE 6 9 29.91 1013 7 11.265408 0 0
12:35 pm 12:35 Cloudy 74 23.3 71 21.7 91 91 Calm 29.91 1013 7 11.265408 0 0
12:52 pm 12:52 Cloudy 74 23.3 70 21.1 88 88 ESE 3 6 29.88 1012 7 11.265408 0 0
1:24 pm 13:24 Cloudy 75 23.9 70 21.1 84 84 NNE 5 7 29.91 1013 10 16.09344 0 0
1:47 pm 13:47 Cloudy 73 23 70 21 89 89 NE 3 6 29.91 1013 10 16.09344 0 0
1:52 pm 13:52 Cloudy 74 23.3 70 21.1 88 88 N 3 6 29.88 1012 10 16.09344 0 0
2:52 pm 14:52 Cloudy 77 25 71 21.7 82 82 SSW 6 9 29.85 1011 10 16.09344 0.001 0.001
3:52 pm 15:52 Cloudy 77 25 73 22.8 88 88 NE 7 11 29.85 1011 10 16.09344 0 0
4:23 pm 16:23 Mostly Cloudy 76 24.4 72 22.2 88 88 ENE 3 6 29.85 1011 10 16.09344 0 0
4:52 pm 16:52 Mostly Cloudy 79 26.1 71 21.7 77 77 S 5 7 29.83 1010 10 16.09344 0 0
5:52 pm 17:52 Partly Cloudy 80 26.7 70 21.1 71 71 S 12 19 29.83 1010 10 16.09344 0 0
6:52 pm 18:52 Mostly Sunny 77 25 70 21.1 79 79 S 8 13 29.83 1010 10 16.09344 0 0
7:52 pm 19:52 Mostly Clear 79 26.1 66 18.9 65 65 SSW 7 11 29.83 1010 10 16.09344 0 0
8:52 pm 20:52 Mostly Clear 74 23.3 69 20.6 85 85 S 3 6 29.85 1011 10 16.09344 0 0
9:52 pm 21:52 Mostly Clear 72 22.2 68 20 87 87 S 7 11 29.85 1011 10 16.09344 0 0
10:52 pm 22:52 Clear 72 22.2 69 20.6 91 91 S 6 9 29.85 1011 10 16.09344 0 0
11:52 pm 23:52 Clear 71 21.7 66 18.9 84 84 S 8 13 29.85 1011 10 16.09344 0 0

Powered by AerisWeather